Location: Berg
(47.2344°N, 9.5296°E)
Time: 19:26:52
(UTC+00:00)

X-37B - Pass Details

Date: 02 October 2021
Orbit: 385 x 389 km, 45.0° (Epoch: 17 October)

Event Time Altitude Azimuth Distance (km) Brightness Sun altitude
Exits shadow 03:20:32 29° 142° (SE) 743 2.1 -21.2°
Drops below altitude 10° 03:22:25 10° 121° (ESE) 1,411 3.9 -20.9°
Sets 03:24:32 0° 114° (ESE) 2,265 5.2 -20.5°
